Погода в Мачкасах

Россия / Пензенская область     52°46′08″N   45°34′33″E
темп.,
°C
ветер,
м/с
пор.,
м/с
влажн.,
%
обл.,
%
осадки,
мм/ч
давл.,
гПа
погр.,
м
6 марта, сб
сб600:00−10з349421 0.0 101441
03:00−12з239436 0.0 101622
06:00−12зсз229684 0.0 101621
09:00−9сз129392 0.0 1017126
12:00−6с2283100 0.0 1017336
15:00−5ссз1176100 0.0 1015489
18:00−9сз1186100 0.0 101521
21:00−11ссз1291100 0.0 101521
7 марта, вс
вс700:00−13сз129234 0.0 101520
03:00−15зсз228829 0.0 101520
06:00−15з339647 0.0 101534
09:00−12зюз479348 0.0 1015255
12:00−7зюз6108760 0.0 1012617
15:00−6юз7128477 0.0 1010907
18:00−6ююз81683100 0.0 1007966
21:00−5юз101893100 0.8 10031157
8 марта, пн
пн800:00−4юз101792100 0.9 1001975
03:00−10з348596 1.4 100234
06:00−12юз348454 0.0 100257
09:00−7ююз489355 0.0 1001368
12:00−2зюз81683100 0.3 9991515
15:00−3з10177898 0.7 9981744
18:00−9зюз7168463 0.0 1001741
21:00−9з8168581 0.1 1005759
9 марта, вт
вт900:00−11з6149298 0.0 1007450
03:00−12з5139499 0.1 1009353
06:00−14з51096100 0.0 1011254
09:00−12з489497 0.1 1012334
12:00−10з4690100 0.0 1013562
15:00−10зсз5787100 0.1 1013680
18:00−13зсз3694100 0.0 1014135
21:00−14зсз3697100 0.1 1017134
10 марта, ср
ср1000:00−17зсз479794 0.0 1018118
03:00−20зсз479990 0.1 1019117
06:00−22зсз479860 0.0 1020118
09:00−19зсз479461 0.0 1021295
12:00−15зсз458856 0.0 1021423
15:00−13з348878 0.0 1020437
18:00−15с1296100 0.1 102020
21:00−17ссв239795 0.2 102124